Paynesville, MN

5:54 PM CDT on October 18, 2017 (GMT -0500)
Paynesville

Weather History for KPEX - October, 2013

Change the Weather History Date:

Wednesday, October 16, 2013

  Actual Average (KLJF) Record (KLJF)
Temperature  
Mean Temperature 43 °F -  
Max Temperature 53 °F 56 °F 83 °F (1991)
Min Temperature 33 °F 34 °F 19 °F (1952)
Degree Days  
Heating Degree Days 22    
Moisture  
Dew Point 36 °F    
Average Humidity 81    
Maximum Humidity 97    
Minimum Humidity 47    
Precipitation  
Precipitation 0.00 in - - ()
Sea Level Pressure  
Sea Level Pressure 29.93 in    
Wind  
Wind Speed 6 mph (WNW)    
Max Wind Speed 12 mph    
Max Gust Speed 16 mph    
Visibility 8 miles    
Events Fog , Snow    
Averages and records for this station are not official NWS values.
T = Trace of Precipitation, MM = Missing Value Source: NWS Daily Summary

Daily Weather History Graph

Daily Weather History Graph

Search for Another Location

Airport or City:

Trip Planner

Search our weather history database for the weather conditions in past years. The results will help you decide how hot, cold, wet, or windy it might be!

Date:

Astronomy

Oct. 16, 2013 Rise Set
Actual Time 7:36 AM CDT 6:31 PM CDT
Civil Twilight 7:06 AM CDT 7:01 PM CDT
Nautical Twilight 6:32 AM CDT 7:35 PM CDT
Astronomical Twilight 5:58 AM CDT 8:09 PM CDT
Moon 5:16 PM CDT (10/16) 4:59 AM CDT (10/16)
Length of Visible Light 11h 54m
Length of Day
10h 54m
Waxing Gibbous, 94% of the Moon is Illuminated
Oct 16
Waxing Gibbous
Oct 18
Full
Oct 26
Last Quarter
Nov 3
New
Nov 9
First Quarter

Hourly Weather History & Observations

Time (CDT) Temp. Windchill Dew Point Humidity Pressure Visibility Wind Dir Wind Speed Gust Speed Precip Events Conditions
12:12 AM 43.7 °F 39.7 °F 41.0 °F 90% 29.92 in 5.0 mi NNW 6.9 mph - N/A   Overcast
12:32 AM 43.2 °F 39.7 °F 41.5 °F 94% 29.92 in 4.0 mi NNW 5.8 mph - N/A   Unknown
12:53 AM 43.0 °F 38.2 °F 41.5 °F 95% 29.93 in 5.0 mi NNW 8.1 mph - N/A   Overcast
1:13 AM 43.0 °F 36.8 °F 41.5 °F 95% 29.93 in 5.0 mi NNW 11.5 mph 16.1 mph N/A   Overcast
1:33 AM 42.8 °F 37.5 °F 41.4 °F 95% 29.94 in 5.0 mi NNW 9.2 mph - N/A   Overcast
1:53 AM 43.0 °F 37.2 °F 41.2 °F 93% 29.94 in 10.0 mi NNW 10.4 mph - N/A   Overcast
2:12 AM 43.2 °F 38.4 °F 40.5 °F 90% 29.94 in 10.0 mi NNW 8.1 mph - N/A   Overcast
2:33 AM 43.2 °F 39.0 °F 40.1 °F 89% 29.94 in 10.0 mi NNW 6.9 mph - N/A   Overcast
2:53 AM 43.0 °F 38.2 °F 39.7 °F 88% 29.94 in 10.0 mi NNW 8.1 mph - N/A   Overcast
3:12 AM 43.0 °F 39.5 °F 39.6 °F 88% 29.94 in 10.0 mi NNW 5.8 mph - N/A   Overcast
3:33 AM 43.0 °F 39.5 °F 39.4 °F 87% 29.94 in 10.0 mi NNW 5.8 mph - N/A   Overcast
3:53 AM 42.8 °F 39.3 °F 39.2 °F 87% 29.94 in 10.0 mi NNW 5.8 mph - N/A   Overcast
4:12 AM 42.3 °F 39.4 °F 38.8 °F 88% 29.94 in 10.0 mi NNW 4.6 mph - N/A   Overcast
4:33 AM 41.4 °F 38.4 °F 38.3 °F 89% 29.94 in 10.0 mi NNW 4.6 mph - N/A   Mostly Cloudy
4:53 AM 40.6 °F 38.6 °F 37.6 °F 89% 29.94 in 10.0 mi NNW 3.5 mph - N/A   Clear
5:12 AM 39.6 °F 37.4 °F 37.2 °F 91% 29.94 in 10.0 mi NNW 3.5 mph - N/A   Clear
5:32 AM 39.2 °F 37.0 °F 36.7 °F 91% 29.94 in 10.0 mi NW 3.5 mph - N/A   Clear
5:53 AM 37.4 °F - 35.4 °F 93% 29.94 in 10.0 mi Calm Calm - N/A   Clear
6:13 AM 37.4 °F 34.9 °F 36.1 °F 95% 29.95 in 10.0 mi WNW 3.5 mph - N/A   Clear
6:32 AM 34.9 °F 32.0 °F 33.4 °F 94% 29.95 in 10.0 mi West 3.5 mph - N/A   Clear
6:53 AM 34.7 °F 31.8 °F 33.6 °F 96% 29.95 in 10.0 mi West 3.5 mph - N/A   Clear
7:13 AM 33.6 °F 30.6 °F 32.7 °F 96% 29.96 in 10.0 mi West 3.5 mph - N/A   Clear
7:33 AM 34.3 °F 31.4 °F 33.6 °F 97% 29.96 in 10.0 mi West 3.5 mph - N/A   Clear
7:53 AM 34.7 °F 31.8 °F 34.0 °F 97% 29.97 in 10.0 mi West 3.5 mph - N/A   Clear
8:12 AM 35.2 °F - 34.3 °F 97% 29.97 in 10.0 mi Calm Calm - N/A   Clear
8:33 AM 35.6 °F 32.8 °F 34.7 °F 97% 29.97 in 7.0 mi West 3.5 mph - N/A   Clear
8:52 AM 37.4 °F 32.8 °F 36.5 °F 97% 29.97 in 7.0 mi WNW 5.8 mph - N/A   Clear
9:13 AM 38.3 °F 33.2 °F 37.4 °F 97% 29.98 in 10.0 mi West 6.9 mph - N/A   Clear
9:33 AM 37.9 °F 32.7 °F 36.7 °F 95% 29.98 in 1.8 mi West 6.9 mph - N/A   Mostly Cloudy
9:52 AM 37.4 °F 32.1 °F 36.3 °F 96% 29.98 in 0.5 mi West 6.9 mph - N/A Fog Fog
10:13 AM 38.5 °F 34.1 °F 37.8 °F 97% 29.98 in 0.8 mi West 5.8 mph - N/A   Overcast
10:33 AM 38.7 °F 34.3 °F 37.9 °F 97% 29.98 in 0.5 mi West 5.8 mph - N/A Fog Fog
10:52 AM 39.4 °F 34.5 °F 38.7 °F 97% 29.98 in 7.0 mi West 6.9 mph - N/A   Overcast
11:13 AM 39.7 °F 34.9 °F 38.8 °F 97% 29.98 in 10.0 mi WSW 6.9 mph - N/A   Overcast
11:32 AM 41.2 °F 36.0 °F 39.7 °F 95% 29.98 in 10.0 mi WSW 8.1 mph - N/A   Overcast
11:52 AM 42.8 °F 38.0 °F 38.8 °F 86% 29.98 in 10.0 mi West 8.1 mph - N/A   Scattered Clouds
12:13 PM 45.3 °F 41.1 °F 39.4 °F 80% 29.97 in 10.0 mi West 8.1 mph - N/A   Scattered Clouds
12:33 PM 47.1 °F - 38.1 °F 71% 29.97 in 10.0 mi West 10.4 mph - N/A   Scattered Clouds
12:52 PM 48.4 °F - 36.0 °F 62% 29.97 in 10.0 mi WSW 10.4 mph - N/A   Clear
1:12 PM 49.1 °F - 33.4 °F 55% 29.95 in 10.0 mi WSW 9.2 mph - N/A   Clear
1:33 PM 50.0 °F - 33.1 °F 52% 29.95 in 10.0 mi West 10.4 mph - N/A   Clear
1:52 PM 50.4 °F - 32.7 °F 51% 29.94 in 10.0 mi WNW 11.5 mph 16.1 mph N/A   Clear
2:13 PM 51.1 °F - 32.9 °F 50% 29.93 in 10.0 mi WSW 9.2 mph - N/A   Clear
2:33 PM 51.8 °F - 34.0 °F 51% 29.92 in 7.0 mi WSW 9.2 mph - N/A   Clear
2:53 PM 52.3 °F - 34.2 °F 50% 29.91 in 5.0 mi WNW 8.1 mph - N/A   Haze
3:13 PM 52.7 °F - 34.0 °F 49% 29.91 in 5.0 mi West 9.2 mph - N/A   Haze
3:33 PM 52.9 °F - 34.2 °F 49% 29.91 in 7.0 mi SW 6.9 mph - N/A   Clear
3:52 PM 53.2 °F - 34.5 °F 49% 29.91 in 7.0 mi West 11.5 mph - N/A   Clear
4:12 PM 53.4 °F - 34.5 °F 49% 29.90 in 5.0 mi WNW 5.8 mph - N/A   Haze
4:33 PM 53.6 °F - 34.5 °F 48% 29.90 in 7.0 mi West 10.4 mph - N/A   Clear
4:53 PM 53.6 °F - 34.0 °F 47% 29.90 in 7.0 mi West 10.4 mph - N/A   Clear
5:12 PM 53.2 °F - 34.0 °F 48% 29.90 in 7.0 mi West 8.1 mph - N/A   Clear
5:32 PM 52.9 °F - 33.3 °F 47% 29.90 in 7.0 mi WNW 6.9 mph - N/A   Clear
5:53 PM 52.0 °F - 33.8 °F 50% 29.89 in 5.0 mi West 5.8 mph - N/A   Haze
6:12 PM 50.0 °F - 34.0 °F 54% 29.89 in 7.0 mi Calm Calm - N/A   Clear
6:33 PM 47.7 °F - 34.2 °F 60% 29.89 in 7.0 mi Calm Calm - N/A   Clear
6:52 PM 43.9 °F - 34.9 °F 71% 29.89 in 7.0 mi Calm Calm - N/A   Clear
7:13 PM 43.3 °F - 34.7 °F 72% 29.89 in 7.0 mi Calm Calm - N/A   Clear
7:33 PM 41.9 °F - 35.2 °F 77% 29.89 in 7.0 mi Calm Calm - N/A   Unknown
7:53 PM 41.0 °F - 35.2 °F 80% 29.89 in 7.0 mi Calm Calm - N/A   Unknown
8:12 PM 40.5 °F - 36.0 °F 84% 29.89 in 7.0 mi Calm Calm - N/A   Unknown
8:33 PM 38.5 °F - 35.6 °F 89% 29.89 in 7.0 mi Calm Calm - N/A   Unknown
8:53 PM 37.9 °F - 35.6 °F 91% 29.89 in 7.0 mi Calm Calm - N/A Snow Light Snow
9:13 PM 37.8 °F - 35.6 °F 92% 29.89 in 7.0 mi Calm Calm - N/A Snow Light Snow
9:33 PM 37.6 °F - 35.6 °F 93% 29.88 in 7.0 mi Calm Calm - N/A Snow Light Snow
9:53 PM 36.9 °F - 34.3 °F 91% 29.88 in 7.0 mi Calm Calm - N/A Snow Light Snow
10:12 PM 37.2 °F - 34.7 °F 91% 29.88 in 10.0 mi Calm Calm - N/A Snow Light Snow
10:33 PM 35.6 °F - 33.1 °F 91% 29.88 in 7.0 mi Calm Calm - N/A Snow Light Snow
10:53 PM 35.1 °F - 32.5 °F 91% 29.88 in 7.0 mi Calm Calm - N/A Snow Light Snow
11:12 PM 35.1 °F - 32.9 °F 92% 29.87 in 7.0 mi Calm Calm - N/A Snow Light Snow
11:32 PM 33.8 °F - 32.0 °F 93% 29.87 in 7.0 mi Calm Calm - N/A Snow Light Snow
11:52 PM 33.4 °F - 32.0 °F 94% 29.86 in 7.0 mi Calm Calm - N/A Snow Light Snow